Find Starlink 5994

NORAD ID: 56457 Int'l Des: 2023-064 Owner: SPXS Country: US Constellation: starlink operational
LEOCIRCULAR

リアルタイム位置

3D地球を読み込み中...

Starlink 5994について

説明を読み込み中...

次回通過

Passes for default location (London). Set your location on the main map for personalized predictions.

高度履歴

Loading altitude history...

軌道要素

1 56457U 23064K 26126.82469257 -.00000306 00000-0 -17830-4 0 9996
2 56457 69.9998 357.8974 0002475 269.9331 90.1545 14.98326504163953
Epoch: May 6, 2026 • Age: 5 hours

現在のステータス

高度 584.7 km
速度 7.57 km/s
衛星直下点 66.70°N, 175.5°E
打ち上げ日 May 10, 2023
運用期間 2.9 years
タイプ internet

技術仕様

分類 Payload
質量 305.00 kg
乾燥質量 290.00 kg
総質量 305.00 kg
長さ 0.20 m
直径 2.80 m
スパン 9.00 m
形状 Box + pan
製造者 SPXS
バスタイプ Starlink
フェーズステータス In Orbit
所有者/国 SPXS/US

Most Searched